Iowa City, IA

4:33 AM CDT on March 28, 2017 (GMT -0500)
Iowa City Municipal

Weather History for KIOW - July, 2013

Change the Weather History Date:

Monday, July 8, 2013

  Actual Average Record
Temperature  
Mean Temperature 82 °F 75 °F  
Max Temperature 88 °F 85 °F 99 °F (1989)
Min Temperature 76 °F 65 °F 53 °F (1954)
Degree Days  
Heating Degree Days 0 0  
Month to date heating degree days 0 0  
Since 1 June heating degree days 21 17  
Since 1 July heating degree days 0 0  
Cooling Degree Days 17 10  
Month to date cooling degree days 72 80  
Year to date cooling degree days 364 352  
Since 1 June cooling degree days 277 291  
Growing Degree Days 32 (Base 50)    
Moisture  
Dew Point 71 °F    
Average Humidity 75    
Maximum Humidity 88    
Minimum Humidity 61    
Precipitation  
Precipitation 0.00 in 0.19 in 2.27 in (1969)
Month to date precipitation 0.00 1.46  
Year to date precipitation 26.07 18.16  
Sea Level Pressure  
Sea Level Pressure 29.95 in    
Wind  
Wind Speed 7 mph (SW)    
Max Wind Speed 15 mph    
Max Gust Speed 20 mph    
Visibility 10 miles    
Events      
T = Trace of Precipitation, MM = Missing Value Source: NWS Daily Summary

Daily Weather History Graph

Daily Weather History Graph

Search for Another Location

Airport or City:

Trip Planner

Search our weather history database for the weather conditions in past years. The results will help you decide how hot, cold, wet, or windy it might be!

Date:

Astronomy

Jul. 08, 2013 Rise Set
Actual Time 5:39 AM CDT 8:42 PM CDT
Civil Twilight 5:06 AM CDT 9:15 PM CDT
Nautical Twilight 4:23 AM CDT 9:58 PM CDT
Astronomical Twilight 3:33 AM CDT 10:48 PM CDT
Moon 6:10 AM CDT (7/8) 8:43 PM CDT (7/8)
Length of Visible Light 16h 09m
Length of Day
15h 02m
New Moon, 0% of the Moon is Illuminated
Jul 8
New Moon
Jul 15
First Quarter
Jul 22
Full
Jul 29
Last Quarter
Aug 6
New

Hourly Weather History & Observations

Time (CDT) Temp. Heat Index Dew Point Humidity Pressure Visibility Wind Dir Wind Speed Gust Speed Precip Events Conditions
12:52 AM 77.0 °F - 66.9 °F 71% 29.94 in 10.0 mi South 5.8 mph - N/A   Overcast
1:52 AM 77.0 °F - 68.0 °F 74% 29.93 in 10.0 mi South 5.8 mph - N/A   Overcast
2:52 AM 78.1 °F - 68.0 °F 71% 29.91 in 10.0 mi SSW 5.8 mph - N/A   Overcast
3:52 AM 79.0 °F - 68.0 °F 69% 29.91 in 10.0 mi SSW 8.1 mph - N/A   Overcast
4:52 AM 78.1 °F - 66.9 °F 68% 29.93 in 10.0 mi SSW 9.2 mph - N/A   Scattered Clouds
5:52 AM 77.0 °F - 66.9 °F 71% 29.93 in 10.0 mi SSW 5.8 mph - N/A   Clear
6:52 AM 77.0 °F - 68.0 °F 74% 29.94 in 10.0 mi South 6.9 mph - N/A   Clear
7:52 AM 78.1 °F - 69.1 °F 74% 29.95 in 10.0 mi South 3.5 mph - N/A   Clear
8:52 AM 81.0 °F 84.1 °F 69.1 °F 67% 29.96 in 10.0 mi SW 8.1 mph - N/A   Partly Cloudy
9:52 AM 82.9 °F 86.5 °F 69.1 °F 63% 29.96 in 10.0 mi SW 12.7 mph - N/A   Clear
10:52 AM 84.9 °F 90.1 °F 71.1 °F 63% 29.96 in 10.0 mi WSW 10.4 mph - N/A   Clear
11:52 AM 84.9 °F 90.1 °F 71.1 °F 63% 29.96 in 10.0 mi SW 11.5 mph - N/A   Partly Cloudy
12:52 PM 86.0 °F 92.2 °F 72.0 °F 63% 29.96 in 10.0 mi SW 9.2 mph 18.4 mph N/A   Clear
1:52 PM 84.0 °F 89.6 °F 72.0 °F 67% 29.96 in 10.0 mi SSW 8.1 mph - N/A   Clear
2:52 PM 84.9 °F 91.4 °F 73.0 °F 67% 29.96 in 10.0 mi WSW 11.5 mph - N/A   Clear
3:52 PM 86.0 °F 93.0 °F 73.0 °F 65% 29.96 in 10.0 mi WSW 9.2 mph - N/A   Clear
4:52 PM 88.0 °F 95.6 °F 73.0 °F 61% 29.95 in 10.0 mi WSW 9.2 mph - N/A   Partly Cloudy
5:52 PM 88.0 °F 96.5 °F 73.9 °F 63% 29.95 in 10.0 mi SW 6.9 mph - N/A   Clear
6:52 PM 84.9 °F 91.4 °F 73.0 °F 67% 29.96 in 10.0 mi WSW 10.4 mph - N/A   Clear
7:52 PM 82.0 °F 86.7 °F 72.0 °F 71% 29.96 in 10.0 mi WSW 5.8 mph - N/A   Overcast
8:52 PM 79.0 °F - 72.0 °F 79% 29.96 in 10.0 mi SSE 3.5 mph - N/A   Partly Cloudy
9:52 PM 77.0 °F - 72.0 °F 84% 29.98 in 10.0 mi Calm Calm - N/A   Clear
10:52 PM 77.0 °F - 72.0 °F 84% 29.97 in 10.0 mi Calm Calm - N/A   Clear
11:52 PM 77.0 °F - 73.0 °F 88% 29.97 in 10.0 mi Calm Calm - N/A   Clear